DLH1V LOWW-EDDF

Flight info

Callsign DLH1V
Flight time N/A
Altitude 30000
Route LUGEM DCT SUBEN T161 DEBHI DEBHI1B
Aircraft A320/M-SDE2E3FGIJ1LORWXYZ/HB1

Departure

Time 2026-05-04 13:19
Airport Vienna International Airport (LOWW)

Arrival

Time N/A
Airport Frankfurt Main Airport (EDDF)
Time Latitude Longitude Altitude Speed Heading
2026-05-04 13:15 48.11468 16.57257 624 ft 0 kts 115°
2026-05-04 13:16 48.11465 16.57265 625 ft 3 kts 115°
2026-05-04 13:16 48.11443 16.57338 620 ft 12 kts 115°
2026-05-04 13:17 48.11474 16.57447 623 ft 15 kts 31°
2026-05-04 13:17 48.11571 16.57526 610 ft 16 kts 28°
2026-05-04 13:17 48.11672 16.57528 612 ft 15 kts 343°
2026-05-04 13:17 48.11782 16.57482 603 ft 17 kts 349°
2026-05-04 13:18 48.11842 16.57585 603 ft 12 kts 69°
2026-05-04 13:18 48.11863 16.57724 604 ft 16 kts 91°
2026-05-04 13:18 48.11806 16.57887 602 ft 20 kts 150°
2026-05-04 13:18 48.11634 16.57965 614 ft 54 kts 164°
2026-05-04 13:19 48.10905 16.58274 621 ft 156 kts 164°
2026-05-04 13:19 48.09726 16.58766 1363 ft 177 kts 165°
2026-05-04 13:19 48.08512 16.59242 2586 ft 181 kts 168°
2026-05-04 13:19 48.07259 16.59733 3576 ft 193 kts 167°
2026-05-04 13:20 48.05879 16.60014 4391 ft 213 kts 191°
2026-05-04 13:20 48.04506 16.58951 5043 ft 239 kts 220°
2026-05-04 13:20 48.03324 16.57091 6011 ft 256 kts 231°
2026-05-04 13:20 48.02600 16.54627 7151 ft 266 kts 257°
2026-05-04 13:21 48.02528 16.51839 8414 ft 272 kts 270°
2026-05-04 13:21 48.02627 16.49005 9655 ft 277 kts 269°
2026-05-04 13:21 48.02652 16.46063 10550 ft 293 kts 267°
2026-05-04 13:21 48.02643 16.42933 11354 ft 308 kts 267°
2026-05-04 13:22 48.02626 16.39686 12335 ft 316 kts 267°
2026-05-04 13:22 48.02704 16.36376 13421 ft 324 kts 274°
2026-05-04 13:22 48.03112 16.33036 14430 ft 329 kts 278°
2026-05-04 13:22 48.03556 16.29658 15370 ft 333 kts 278°
2026-05-04 13:23 48.04006 16.26244 16331 ft 337 kts 278°
2026-05-04 13:23 48.04460 16.22791 17296 ft 341 kts 278°
2026-05-04 13:23 48.04918 16.19288 18186 ft 346 kts 278°
2026-05-04 13:23 48.05379 16.15746 18982 ft 350 kts 279°
2026-05-04 13:24 48.05846 16.12144 19793 ft 354 kts 279°
2026-05-04 13:24 48.06313 16.08514 20568 ft 359 kts 279°
2026-05-04 13:24 48.06786 16.04833 21408 ft 361 kts 279°
2026-05-04 13:25 48.07743 15.97372 23001 ft 368 kts 279°
2026-05-04 13:25 48.08223 15.93595 23724 ft 373 kts 280°
2026-05-04 13:25 48.08712 15.89747 24213 ft 380 kts 280°
2026-05-04 13:25 48.09240 15.85848 24812 ft 385 kts 282°
2026-05-04 13:26 48.09867 15.81932 25443 ft 388 kts 284°
2026-05-04 13:26 48.10551 15.78013 26066 ft 392 kts 285°
2026-05-04 13:26 48.11266 15.74057 26679 ft 395 kts 285°
2026-05-04 13:26 48.11983 15.70083 27296 ft 398 kts 285°
2026-05-04 13:27 48.12699 15.66060 27892 ft 401 kts 285°
2026-05-04 13:27 48.13405 15.62010 28471 ft 404 kts 284°
2026-05-04 13:27 48.14101 15.57916 29056 ft 407 kts 284°
2026-05-04 13:27 48.14795 15.53785 29630 ft 411 kts 284°
2026-05-04 13:28 48.15490 15.49633 29914 ft 411 kts 284°
2026-05-04 13:28 48.16173 15.45534 29968 ft 396 kts 284°
2026-05-04 13:28 48.16822 15.41636 29965 ft 377 kts 284°
2026-05-04 13:28 48.17434 15.37896 29966 ft 364 kts 283°
2026-05-04 13:29 48.18482 15.30541 29966 ft 359 kts 281°
2026-05-04 13:29 48.19446 15.23213 29966 ft 358 kts 281°
2026-05-04 13:30 48.20420 15.15892 29966 ft 358 kts 282°
2026-05-04 13:30 48.21410 15.08584 29964 ft 358 kts 281°
2026-05-04 13:31 48.22400 15.01266 29960 ft 358 kts 281°
2026-05-04 13:31 48.23380 14.93961 29959 ft 358 kts 281°
2026-05-04 13:32 48.24356 14.86643 29955 ft 358 kts 281°
2026-05-04 13:32 48.25326 14.79333 29954 ft 357 kts 281°
2026-05-04 13:33 48.26297 14.72017 29948 ft 357 kts 281°
2026-05-04 13:33 48.27259 14.64705 29951 ft 357 kts 281°
2026-05-04 13:34 48.28221 14.57336 29947 ft 357 kts 281°
2026-05-04 13:34 48.29174 14.50014 29945 ft 357 kts 281°
2026-05-04 13:35 48.30596 14.39026 29944 ft 358 kts 281°
2026-05-04 13:36 48.31544 14.31691 29943 ft 358 kts 281°
2026-05-04 13:36 48.32485 14.24363 29946 ft 357 kts 280°
2026-05-04 13:37 48.33409 14.17028 29946 ft 357 kts 280°
2026-05-04 13:37 48.34332 14.09709 29938 ft 356 kts 280°
2026-05-04 13:38 48.35246 14.02437 29949 ft 356 kts 280°
2026-05-04 13:38 48.36162 13.95073 29945 ft 356 kts 280°
2026-05-04 13:39 48.37071 13.87757 29936 ft 356 kts 279°
2026-05-04 13:39 48.37978 13.80455 29935 ft 353 kts 279°
2026-05-04 13:39 48.38416 13.76902 29950 ft 338 kts 279°
2026-05-04 13:40 48.38834 13.73507 29952 ft 322 kts 279°
2026-05-04 13:40 48.39231 13.70277 29933 ft 307 kts 279°
2026-05-04 13:40 48.39610 13.67183 29942 ft 294 kts 279°
2026-05-04 13:40 48.39972 13.64198 29948 ft 288 kts 279°
2026-05-04 13:41 48.40329 13.61245 29939 ft 286 kts 279°
2026-05-04 13:41 48.40685 13.58306 29949 ft 285 kts 279°
2026-05-04 13:41 48.41042 13.55369 29945 ft 285 kts 279°
2026-05-04 13:42 48.41751 13.49498 29939 ft 285 kts 279°
2026-05-04 13:42 48.42104 13.46564 29955 ft 285 kts 278°
2026-05-04 13:42 48.42453 13.43631 29950 ft 284 kts 278°
2026-05-04 13:42 48.42799 13.40712 29938 ft 283 kts 278°
2026-05-04 13:43 48.43145 13.37792 29938 ft 283 kts 278°
2026-05-04 13:43 48.43501 13.34871 29940 ft 284 kts 281°
2026-05-04 13:43 48.44068 13.32024 29945 ft 285 kts 289°
2026-05-04 13:43 48.44817 13.29249 29943 ft 285 kts 289°
2026-05-04 13:44 48.45559 13.26479 29943 ft 286 kts 289°
2026-05-04 13:44 48.46296 13.23697 29950 ft 286 kts 289°
2026-05-04 13:44 48.47028 13.20919 29947 ft 286 kts 289°
2026-05-04 13:44 48.47758 13.18135 29943 ft 286 kts 289°
2026-05-04 13:45 48.48488 13.15350 29948 ft 286 kts 289°
2026-05-04 13:45 48.49219 13.12561 29950 ft 286 kts 289°
2026-05-04 13:45 48.49947 13.09777 29945 ft 286 kts 289°
2026-05-04 13:45 48.50676 13.06990 29949 ft 286 kts 289°
2026-05-04 13:46 48.51407 13.04199 29952 ft 287 kts 289°
2026-05-04 13:46 48.52139 13.01394 29946 ft 288 kts 289°
2026-05-04 13:46 48.52874 12.98572 29952 ft 289 kts 289°
2026-05-04 13:46 48.53610 12.95758 29958 ft 289 kts 289°
2026-05-04 13:47 48.54350 12.92939 29948 ft 289 kts 289°
2026-05-04 13:47 48.55085 12.90122 29952 ft 289 kts 289°
2026-05-04 13:47 48.55819 12.87302 29949 ft 289 kts 289°
2026-05-04 13:47 48.56552 12.84479 29955 ft 289 kts 289°
2026-05-04 13:48 48.57283 12.81658 29957 ft 289 kts 289°
2026-05-04 13:48 48.57767 12.79785 29952 ft 289 kts 288°
2026-05-04 13:48 48.58505 12.76928 29956 ft 289 kts 288°
2026-05-04 13:48 48.59234 12.74102 29955 ft 289 kts 288°
2026-05-04 13:49 48.59963 12.71275 29955 ft 289 kts 288°
2026-05-04 13:49 48.60692 12.68454 29964 ft 287 kts 288°
2026-05-04 13:49 48.61419 12.65648 29952 ft 286 kts 288°
2026-05-04 13:49 48.62142 12.62856 29955 ft 286 kts 288°
2026-05-04 13:50 48.62863 12.60056 29958 ft 286 kts 288°
2026-05-04 13:50 48.63579 12.57259 29962 ft 285 kts 288°
2026-05-04 13:50 48.64294 12.54452 29966 ft 285 kts 288°
2026-05-04 13:50 48.65007 12.51658 29960 ft 285 kts 288°
2026-05-04 13:51 48.65723 12.48858 29961 ft 285 kts 288°
2026-05-04 13:51 48.66441 12.46054 29958 ft 285 kts 288°
2026-05-04 13:51 48.67157 12.43251 29968 ft 285 kts 288°
2026-05-04 13:51 48.67870 12.40456 29971 ft 285 kts 288°
2026-05-04 13:52 48.69301 12.34849 29970 ft 285 kts 288°
2026-05-04 13:52 48.70015 12.32039 29969 ft 285 kts 288°
2026-05-04 13:52 48.70735 12.29204 29972 ft 285 kts 288°
2026-05-04 13:53 48.71437 12.26432 29987 ft 286 kts 287°
2026-05-04 13:53 48.72149 12.23611 29971 ft 288 kts 287°
2026-05-04 13:53 48.72861 12.20777 29975 ft 288 kts 287°
2026-05-04 13:54 48.74301 12.15057 29973 ft 288 kts 287°
2026-05-04 13:54 48.74938 12.12186 29972 ft 287 kts 281°
2026-05-04 13:54 48.75637 12.06270 29969 ft 285 kts 276°
2026-05-04 13:55 48.75960 12.03304 29967 ft 285 kts 276°
2026-05-04 13:55 48.76606 11.97368 29971 ft 286 kts 276°
2026-05-04 13:55 48.76926 11.94401 29969 ft 286 kts 276°
2026-05-04 13:56 48.77246 11.91433 29964 ft 286 kts 276°
2026-05-04 13:56 48.77565 11.88460 29965 ft 286 kts 276°
2026-05-04 13:56 48.78197 11.82531 29971 ft 283 kts 275°
2026-05-04 13:57 48.78511 11.79586 29969 ft 283 kts 275°
2026-05-04 13:57 48.78825 11.76641 29966 ft 282 kts 275°
2026-05-04 13:58 48.79751 11.67827 29972 ft 282 kts 275°
2026-05-04 13:58 48.80369 11.61950 29974 ft 282 kts 275°
2026-05-04 13:58 48.80677 11.59010 29974 ft 282 kts 275°
2026-05-04 13:59 48.80984 11.56071 29972 ft 282 kts 275°
2026-05-04 13:59 48.81289 11.53135 29974 ft 282 kts 275°
2026-05-04 13:59 48.81895 11.47258 29974 ft 282 kts 275°
2026-05-04 14:00 48.82195 11.44312 29970 ft 282 kts 275°
2026-05-04 14:00 48.82796 11.38419 29975 ft 283 kts 275°
2026-05-04 14:00 48.83094 11.35472 29973 ft 283 kts 275°
2026-05-04 14:01 48.83389 11.32525 29974 ft 283 kts 275°
2026-05-04 14:01 48.83686 11.29573 29973 ft 283 kts 275°
2026-05-04 14:01 48.84726 11.23814 29977 ft 287 kts 290°
2026-05-04 14:02 48.85683 11.21140 29975 ft 290 kts 299°
2026-05-04 14:02 48.86907 11.18698 29977 ft 294 kts 307°
2026-05-04 14:02 48.88380 11.16509 29978 ft 296 kts 313°
2026-05-04 14:02 48.89905 11.14400 29978 ft 297 kts 313°
2026-05-04 14:03 48.91426 11.12285 29977 ft 296 kts 312°
2026-05-04 14:03 48.92946 11.10164 29988 ft 296 kts 312°
2026-05-04 14:03 48.94483 11.08016 29989 ft 296 kts 312°
2026-05-04 14:03 48.95982 11.05916 29989 ft 296 kts 312°
2026-05-04 14:04 48.99029 11.01651 29993 ft 295 kts 312°
2026-05-04 14:04 49.00519 10.99561 29991 ft 295 kts 312°
2026-05-04 14:04 49.02051 10.97409 29991 ft 296 kts 312°
2026-05-04 14:05 49.05080 10.93147 30010 ft 297 kts 312°
2026-05-04 14:05 49.06596 10.91018 30011 ft 297 kts 312°
2026-05-04 14:05 49.08112 10.88885 30010 ft 297 kts 312°
2026-05-04 14:06 49.09628 10.86749 30011 ft 296 kts 312°
2026-05-04 14:06 49.11139 10.84615 30008 ft 296 kts 312°
2026-05-04 14:06 49.12652 10.82475 30027 ft 296 kts 312°
2026-05-04 14:06 49.14163 10.80339 29829 ft 295 kts 312°
2026-05-04 14:07 49.15660 10.78219 29461 ft 293 kts 312°
2026-05-04 14:07 49.17152 10.76100 29125 ft 292 kts 312°
2026-05-04 14:07 49.18632 10.73998 28806 ft 289 kts 312°
2026-05-04 14:07 49.20097 10.71903 28490 ft 287 kts 311°
2026-05-04 14:08 49.21510 10.69760 28166 ft 285 kts 309°
2026-05-04 14:08 49.22882 10.67594 27886 ft 282 kts 308°
2026-05-04 14:08 49.24231 10.65431 27590 ft 280 kts 308°
2026-05-04 14:08 49.25574 10.63272 27283 ft 279 kts 308°
2026-05-04 14:09 49.28256 10.58996 26680 ft 278 kts 308°
2026-05-04 14:09 49.29599 10.56872 26383 ft 277 kts 308°
2026-05-04 14:10 49.32263 10.52655 25839 ft 274 kts 308°
2026-05-04 14:10 49.33585 10.50562 25551 ft 273 kts 308°
2026-05-04 14:10 49.34904 10.48478 25275 ft 272 kts 308°
2026-05-04 14:10 49.36175 10.46359 25053 ft 267 kts 302°
2026-05-04 14:11 49.37257 10.44063 24988 ft 265 kts 299°
2026-05-04 14:11 49.39379 10.39419 24988 ft 266 kts 299°
2026-05-04 14:11 49.40446 10.37087 24989 ft 266 kts 299°
2026-05-04 14:12 49.41524 10.34727 24990 ft 266 kts 299°
2026-05-04 14:12 49.42584 10.32402 24988 ft 266 kts 299°
2026-05-04 14:12 49.44694 10.27769 24519 ft 264 kts 299°
2026-05-04 14:13 49.45747 10.25447 24248 ft 263 kts 299°
2026-05-04 14:13 49.46786 10.23155 23996 ft 261 kts 299°
2026-05-04 14:13 49.47826 10.20861 23737 ft 260 kts 299°
2026-05-04 14:13 49.48859 10.18583 23468 ft 260 kts 299°
2026-05-04 14:14 49.49891 10.16307 23179 ft 258 kts 299°
2026-05-04 14:14 49.51938 10.11809 22627 ft 257 kts 302°
2026-05-04 14:14 49.53127 10.09740 22360 ft 259 kts 310°
2026-05-04 14:15 49.56096 10.06523 21837 ft 265 kts 329°
2026-05-04 14:15 49.59395 10.04062 21324 ft 262 kts 328°
2026-05-04 14:16 49.62659 10.01605 20851 ft 260 kts 328°
2026-05-04 14:16 49.64278 10.00381 20626 ft 259 kts 328°
2026-05-04 14:17 49.67489 9.97943 20165 ft 256 kts 328°
2026-05-04 14:17 49.69081 9.96734 19934 ft 255 kts 328°
2026-05-04 14:17 49.72245 9.94312 19474 ft 252 kts 327°
2026-05-04 14:18 49.73778 9.93014 19246 ft 250 kts 325°
2026-05-04 14:18 49.76609 9.90066 18795 ft 238 kts 302°
2026-05-04 14:19 49.78339 9.85756 18315 ft 235 kts 294°
2026-05-04 14:19 49.79146 9.83535 17957 ft 239 kts 294°
2026-05-04 14:19 49.79962 9.81257 17552 ft 245 kts 294°
2026-05-04 14:19 49.80790 9.78921 17161 ft 250 kts 294°
2026-05-04 14:20 49.81630 9.76528 16774 ft 256 kts 294°
2026-05-04 14:20 49.82482 9.74077 16395 ft 261 kts 294°
2026-05-04 14:20 49.83343 9.71575 16003 ft 266 kts 294°
2026-05-04 14:21 49.85096 9.66411 15249 ft 274 kts 294°
2026-05-04 14:21 49.85982 9.63771 14883 ft 277 kts 294°
2026-05-04 14:21 49.86872 9.61103 14523 ft 280 kts 294°
2026-05-04 14:21 49.87476 9.59282 14282 ft 282 kts 294°
2026-05-04 14:22 49.88372 9.56566 13926 ft 284 kts 294°
2026-05-04 14:22 49.89271 9.53816 13539 ft 287 kts 294°
2026-05-04 14:22 49.90175 9.51047 13150 ft 289 kts 294°
2026-05-04 14:22 49.91080 9.48265 12756 ft 289 kts 294°
2026-05-04 14:23 49.92014 9.42420 11979 ft 279 kts 255°
2026-05-04 14:23 49.91226 9.39751 11693 ft 269 kts 228°
2026-05-04 14:23 49.89777 9.38087 11567 ft 256 kts 200°
2026-05-04 14:24 49.88059 9.37767 11443 ft 248 kts 172°
2026-05-04 14:24 49.86391 9.38235 11310 ft 240 kts 178°
2026-05-04 14:24 49.84811 9.37693 11185 ft 232 kts 209°
2026-05-04 14:24 49.83706 9.35959 11076 ft 226 kts 240°
2026-05-04 14:25 49.83416 9.33612 10987 ft 224 kts 274°
2026-05-04 14:25 49.85078 9.29734 10986 ft 221 kts 313°
2026-05-04 14:25 49.86197 9.28100 10993 ft 222 kts 314°
2026-05-04 14:26 49.87325 9.26482 10776 ft 220 kts 314°
2026-05-04 14:26 49.88451 9.24875 10554 ft 220 kts 313°
2026-05-04 14:26 49.89585 9.23271 10431 ft 221 kts 314°
2026-05-04 14:26 49.90715 9.21670 10284 ft 220 kts 314°
2026-05-04 14:27 49.91858 9.20053 9992 ft 226 kts 314°
2026-05-04 14:27 49.93036 9.18387 9657 ft 232 kts 315°
2026-05-04 14:27 49.94388 9.16994 9315 ft 236 kts 331°
2026-05-04 14:27 49.95914 9.15883 8976 ft 252 kts 334°
2026-05-04 14:28 49.97542 9.14742 8630 ft 259 kts 334°
2026-05-04 14:28 49.99185 9.13604 8303 ft 258 kts 334°
2026-05-04 14:28 50.00845 9.12457 7988 ft 257 kts 334°
2026-05-04 14:28 50.02482 9.11328 7647 ft 257 kts 334°
2026-05-04 14:29 50.05729 9.09092 7041 ft 253 kts 334°
2026-05-04 14:29 50.08926 9.06930 7046 ft 250 kts 334°
2026-05-04 14:30 50.10519 9.05873 7045 ft 250 kts 334°
2026-05-04 14:30 50.12124 9.04813 7047 ft 250 kts 334°
2026-05-04 14:30 50.15266 9.02606 6536 ft 243 kts 322°
2026-05-04 14:31 50.16327 9.00678 6174 ft 233 kts 291°
2026-05-04 14:31 50.15891 8.96126 5347 ft 224 kts 230°
2026-05-04 14:32 50.13657 8.92727 4536 ft 223 kts 224°
2026-05-04 14:32 50.12518 8.91098 4114 ft 223 kts 224°
2026-05-04 14:32 50.11378 8.89407 3688 ft 223 kts 229°
2026-05-04 14:32 50.10349 8.87589 3265 ft 224 kts 229°
2026-05-04 14:33 50.09305 8.85800 2833 ft 223 kts 229°
2026-05-04 14:33 50.08313 8.83966 2403 ft 221 kts 242°
2026-05-04 14:33 50.07907 8.81731 2380 ft 205 kts 262°
2026-05-04 14:33 50.07698 8.79701 2617 ft 180 kts 261°
2026-05-04 14:34 50.07500 8.77839 2851 ft 170 kts 261°
2026-05-04 14:34 50.07298 8.76046 3066 ft 167 kts 261°
2026-05-04 14:34 50.07101 8.74261 3295 ft 166 kts 261°
2026-05-04 14:34 50.06888 8.72454 3521 ft 168 kts 261°
2026-05-04 14:35 50.06682 8.70675 3745 ft 166 kts 261°
2026-05-04 14:35 50.06482 8.68905 3943 ft 167 kts 261°
2026-05-04 14:35 50.06284 8.67106 3994 ft 170 kts 261°
2026-05-04 14:35 50.06089 8.65285 3999 ft 170 kts 261°
2026-05-04 14:36 50.05896 8.63475 3992 ft 170 kts 261°
2026-05-04 14:36 50.05695 8.61665 3995 ft 169 kts 261°
2026-05-04 14:36 50.05498 8.59854 4014 ft 170 kts 261°